Location: Newark
(48.6461°N, 4.3644°W)
Time: 05:29:49
(UTC+00:00)

SR - All Passes

Search period start: 27 January 2020 00:00
Search period end: 06 February 2020 00:00
Orbit: 574 x 882 km, 66.7° (Epoch: 26 January)

Date Brightness Start Highest point End Pass type
(mag) Time Alt. Az. Time Alt. Az. Time Alt. Az.
27 Jan - 00:57:37 10° WNW 01:01:45 19° NNW 01:05:50 10° NNE night (unlit)
27 Jan - 02:43:45 10° NNW 02:46:15 13° N 02:48:43 10° NNE visible
27 Jan - 04:26:32 10° NNW 04:30:42 20° NNE 04:34:40 10° ENE visible
27 Jan - 06:08:22 10° NNW 06:14:01 62° NE 06:19:10 10° SE visible
27 Jan - 07:51:14 10° NW 07:55:39 25° WSW 07:59:47 10° SSW daylight
27 Jan - 20:42:48 10° SSE 20:47:00 21° ESE 20:51:14 10° ENE night (unlit)
27 Jan - 22:22:34 10° SW 22:28:28 84° WNW 22:34:26 10° NE night (unlit)
28 Jan - 00:06:35 10° W 00:11:27 25° NNW 00:16:16 10° NNE night (unlit)
28 Jan - 01:52:56 10° NW 01:55:41 13° N 01:58:24 10° NNE visible
28 Jan - 03:36:54 10° NNW 03:40:18 16° NNE 03:43:36 10° NE visible
28 Jan - 05:18:45 10° NNW 05:24:05 39° NE 05:29:00 10° ESE visible
28 Jan - 07:01:01 10° NW 07:06:19 46° WSW 07:11:10 10° S visible
28 Jan - 19:56:38 10° ESE 19:57:52 11° E 19:59:07 10° E night (unlit)
28 Jan - 21:33:05 10° SSW 21:38:50 59° ESE 21:44:39 10° NE night (unlit)
28 Jan - 23:15:52 10° WSW 23:21:18 36° NW 23:26:43 10° NNE night (unlit)
29 Jan - 01:01:45 10° NW 01:05:09 15° NNW 01:08:31 10° NNE night (unlit)
29 Jan - 02:47:02 10° NNW 02:49:47 13° N 02:52:28 10° NE visible
29 Jan - 04:29:11 10° NNW 04:33:57 26° NE 04:38:26 10° E visible
29 Jan - 06:11:08 10° NW 06:16:47 82° WSW 06:21:55 10° SSE visible
29 Jan - 07:55:11 10° WNW 07:57:53 14° WSW 08:00:28 10° SW daylight
29 Jan - 20:44:09 10° S 20:49:22 34° ESE 20:54:39 10° NE night (unlit)
29 Jan - 22:25:31 10° SW 22:31:19 55° NW 22:37:08 10° NNE night (unlit)
30 Jan - 00:10:32 10° WNW 00:14:44 19° NNW 00:18:52 10° NNE night (unlit)
30 Jan - 01:56:44 10° NNW 01:59:13 13° N 02:01:38 10° NNE visible
30 Jan - 03:39:37 10° NNW 03:43:40 19° NNE 03:47:34 10° ENE visible
30 Jan - 05:21:26 10° NNW 05:27:02 59° NE 05:32:08 10° SE visible
30 Jan - 07:04:13 10° NW 07:08:43 26° WSW 07:12:55 10° SSW visible
30 Jan - 19:56:02 10° SSE 20:00:05 20° ESE 20:04:10 10° ENE night (unlit)
30 Jan - 21:35:36 10° SW 21:41:31 87° NW 21:47:28 10° NE night (unlit)
30 Jan - 23:19:32 10° W 23:24:27 26° NNW 23:29:19 10° NNE night (unlit)
31 Jan - 01:05:52 10° NW 01:08:38 13° N 01:11:22 10° NNE night (unlit)
31 Jan - 02:49:58 10° NNW 02:53:15 15° NNE 02:56:27 10° NE visible
31 Jan - 04:31:49 10° NNW 04:37:04 37° NE 04:41:57 10° ESE visible
31 Jan - 06:14:03 10° NW 06:19:22 48° WSW 06:24:14 10° S visible
31 Jan - 20:46:09 10° SSW 20:51:53 56° ESE 20:57:41 10° NE visible
31 Jan - 22:28:50 10° WSW 22:34:18 37° NW 22:39:46 10° NNE night (unlit)
01 Feb - 00:14:39 10° NW 00:18:07 16° NNW 00:21:32 10° NNE night (unlit)
01 Feb - 02:00:05 10° NNW 02:02:44 13° N 02:05:20 10° NE visible
01 Feb - 03:42:16 10° NNW 03:46:56 25° NNE 03:51:21 10° E visible
01 Feb - 05:24:11 10° NW 05:29:48 86° WSW 05:34:55 10° SSE visible
01 Feb - 07:08:04 10° WNW 07:10:57 15° WSW 07:13:44 10° SW visible
01 Feb - 19:57:17 10° S 20:02:26 33° ESE 20:07:39 10° NE visible
01 Feb - 21:38:31 10° SW 21:44:21 57° NW 21:50:10 10° NNE visible
01 Feb - 23:23:27 10° WNW 23:27:42 20° NNW 23:31:54 10° NNE night (unlit)
02 Feb - 01:09:43 10° NNW 01:12:10 13° N 01:14:34 10° NNE night (unlit)
02 Feb - 02:52:41 10° NNW 02:56:39 19° NNE 03:00:26 10° ENE visible
02 Feb - 04:34:29 10° NNW 04:40:02 56° NE 04:45:06 10° SE visible
02 Feb - 06:17:12 10° NW 06:21:46 28° WSW 06:26:01 10° SSW visible
02 Feb - 19:09:16 10° SSE 19:13:10 19° ESE 19:17:05 10° ENE visible
02 Feb - 20:48:38 10° SSW 20:54:33 89° SE 21:00:30 10° NE visible
02 Feb - 22:32:28 10° W 22:37:26 27° NW 22:42:21 10° NNE night (unlit)
03 Feb - 00:18:48 10° NW 00:21:35 13° N 00:24:20 10° NNE night (unlit)
03 Feb - 02:03:01 10° NNW 02:06:13 15° NNE 02:09:18 10° NE night (unlit)
03 Feb - 03:44:53 10° NNW 03:50:04 35° NE 03:54:52 10° ESE visible
03 Feb - 05:27:04 10° NW 05:32:25 51° WSW 05:37:17 10° SSE visible
03 Feb - 19:59:14 10° SSW 20:04:56 54° ESE 20:10:41 10° NE visible
03 Feb - 21:41:47 10° WSW 21:47:19 39° NW 21:52:48 10° NNE visible
03 Feb - 23:27:34 10° NW 23:31:05 16° NNW 23:34:33 10° NNE night (unlit)
04 Feb - 01:13:07 10° NNW 01:15:41 13° N 01:18:12 10° NE night (unlit)
04 Feb - 02:55:19 10° NNW 02:59:55 24° NNE 03:04:14 10° E visible
04 Feb - 04:37:14 10° NW 04:42:50 90° W 04:47:55 10° SSE visible
04 Feb - 06:20:58 10° WNW 06:24:01 16° WSW 06:26:58 10° SW visible
04 Feb - 19:10:25 10° S 19:15:30 31° ESE 19:20:37 10° NE visible
04 Feb - 20:51:30 10° SW 20:57:22 60° NW 21:03:12 10° NNE visible
04 Feb - 22:36:22 10° WNW 22:40:41 20° NNW 22:44:56 10° NNE visible
05 Feb - 00:22:42 10° NNW 00:25:07 12° N 00:27:28 10° NNE night (unlit)
05 Feb - 02:05:45 10° NNW 02:09:37 18° NNE 02:13:18 10° ENE night (unlit)
05 Feb - 03:47:33 10° NNW 03:53:03 54° NE 03:58:04 10° SE visible
05 Feb - 05:30:12 10° NW 05:34:50 29° WSW 05:39:08 10° S visible
05 Feb - 18:22:31 10° SE 18:26:15 18° ESE 18:29:59 10° ENE visible
05 Feb - 20:01:39 10° SSW 20:07:35 86° SE 20:13:32 10° NE visible
05 Feb - 21:45:24 10° W 21:50:25 28° NW 21:55:22 10° NNE visible
05 Feb - 23:31:43 10° NW 23:34:33 13° N 23:37:20 10° NNE night (unlit)
